GW0980 Weather Reports


time (UTC)temp
F
wind
direction
speed
knots
gust
knots
rain 1hr
in
rain 24hr
in
rain mn
in
humidity
%
barometer
mb
20260503194539 83 130 0.0 3.5 0.00 0.00 0.00 44 1010.8
20260503193055 82 145 0.0 4.3 0.00 0.00 0.00 45 1011.0
20260503191544 81 0 0.0 1.7 0.00 0.00 0.00 45 1011.1
20260503190053 80 172 0.0 2.6 0.00 0.00 0.00 49 1011.1
20260503184541 79 150 0.9 3.5 0.00 0.00 0.00 52 1011.3
20260503183054 78 0 0.0 2.6 0.00 0.00 0.00 54 1011.5
20260503181543 76 129 0.0 2.6 0.00 0.00 0.00 56 1011.6
20260503180054 75 105 1.7 4.3 0.00 0.00 0.00 55 1011.6
20260503174542 75 0 0.0 0.9 0.00 0.00 0.00 58 1011.6
20260503173103 73 94 0.0 1.7 0.00 0.00 0.00 61 1011.6
20260503171549 72 0 0.0 1.7 0.00 0.00 0.00 64 1011.7
20260503090240 52 307 0.0 0.9 0.00 0.00 0.00 93 1012.8
20260503081545 53 294 0.9 1.7 0.00 0.00 0.00 91 1012.9
20260503071548 55 0 0.0 0.0 0.00 0.00 0.00 89 1013.0
20260503054542 59 314 0.0 0.9 0.00 0.00 0.00 82 1012.9
20260503053037 60 294 0.9 1.7 0.00 0.00 0.00 79 1013.0
20260503051550 61 0 0.0 2.6 0.00 0.00 0.00 79 1013.2
20260503050144 61 302 0.0 2.6 0.00 0.00 0.00 78 1013.2
20260503050044 61 302 0.0 2.6 0.00 0.00 0.00 78 1013.2
20260503044541 62 0 0.0 0.0 0.00 0.00 0.00 77 1013.1
20260503043041 62 0 0.0 3.5 0.00 0.00 0.00 76 1013.0
20260503041541 63 292 0.9 3.5 0.00 0.00 0.00 75 1012.8
20260503040044 63 0 0.0 1.7 0.00 0.00 0.00 76 1012.6
20260503034540 63 310 0.0 3.5 0.00 0.00 0.00 76 1012.4
20260503033207 63 278 0.0 2.6 0.00 0.00 0.00 75 1012.3
20260503033046 63 278 0.0 2.6 0.00 0.00 0.00 75 1012.3
20260503031538 64 282 1.7 2.6 0.00 0.00 0.00 73 1012.1
20260503030156 65 0 0.0 0.9 0.00 0.00 0.00 71 1012.5
20260503030042 65 0 0.0 0.9 0.00 0.00 0.00 71 1012.5
20260503024546 65 0 0.0 0.9 0.00 0.00 0.00 70 1012.7
20260503023037 66 0 0.0 2.6 0.00 0.00 0.00 69 1012.8
20260503021633 67 80 0.0 3.5 0.00 0.00 0.00 68 1012.9
20260503021548 67 80 0.0 3.5 0.00 0.00 0.00 68 1012.9
20260503020050 68 58 0.0 2.6 0.00 0.00 0.00 67 1012.7
20260503014607 68 120 0.9 3.5 0.00 0.00 0.00 66 1012.3
20260503013040 70 0 0.0 2.6 0.00 0.00 0.00 64 1012.1
20260503011546 71 0 0.0 1.7 0.00 0.00 0.00 61 1012.2
20260503010050 71 0 0.0 0.9 0.00 0.00 0.00 59 1012.1
20260503004609 71 0 0.0 1.7 0.00 0.00 0.00 58 1012.1
20260503003038 70 0 0.0 1.7 0.00 0.00 0.00 59 1012.0
20260503001539 70 106 0.0 2.6 0.00 0.00 0.00 59 1011.8
20260503000136 70 146 0.9 2.6 0.00 0.00 0.00 58 1011.9
20260503000043 70 146 0.9 2.6 0.00 0.00 0.00 58 1011.9
20260502234543 70 0 0.0 0.9 0.00 0.00 0.00 58 1012.0
20260502233041 69 0 0.0 1.7 0.00 0.00 0.00 58 1012.4
20260502231542 69 39 0.0 1.7 0.00 0.00 0.00 58 1012.6
20260502230043 69 0 0.0 2.6 0.00 0.00 0.00 59 1012.9
20260502224538 69 146 0.0 3.5 0.00 0.00 0.00 60 1013.0
20260502223041 68 229 0.0 3.5 0.00 0.00 0.00 59 1013.2
20260502221545 68 0 0.0 1.7 0.00 0.00 0.00 59 1013.5
20260502220039 68 0 0.0 1.7 0.00 0.00 0.00 59 1013.7
20260502214544 66 79 0.0 1.7 0.00 0.00 0.00 60 1013.8
20260502213042 64 0 0.0 0.9 0.00 0.00 0.00 65 1013.9
20260502211620 62 0 0.0 0.9 0.00 0.00 0.00 67 1014.2
20260502210042 62 0 0.0 0.9 0.00 0.00 0.00 68 1014.4
20260502204540 61 270 0.0 0.9 0.00 0.00 0.00 67 1014.5
20260502203053 60 0 0.0 2.6 0.00 0.00 0.00 67 1014.7
20260502201543 58 305 1.7 3.5 0.00 0.00 0.00 68 1015.1
20260502200043 57 301 0.0 0.9 0.00 0.00 0.00 74 1015.5